Weather History for Spokane Fairchild, WA

Change the Weather History Date:

Tuesday, January 1, 2013

  Actual Average Record
Temperature  
Mean Temperature 16 °F -  
Max Temperature 23 °F 32 °F 42 °F (1997)
Min Temperature 10 °F 22 °F -4 °F (2011)
Degree Days  
Heating Degree Days 48    
Moisture  
Dew Point 20 °F    
Average Humidity 100    
Maximum Humidity 100    
Minimum Humidity 100    
Precipitation  
Precipitation 0.00 in - - ()
Sea Level Pressure  
Sea Level Pressure 30.52 in    
Wind  
Wind Speed 4 mph (SW)    
Max Wind Speed 10 mph    
Max Gust Speed -    
Visibility 10 miles    
Events Snow    
Averages and records for this station are not official NWS values.
T = Trace of Precipitation, MM = Missing Value Source: NWS Daily Summary

Daily Weather History Graph

Daily Weather History Graph

Search for Another Location

Airport:

Trip Planner

Search our weather history database for the weather conditions in past years. The results will help you decide how hot, cold, wet, or windy it might be!

Date:

Astronomy

Jan. 01, 2013 Rise Set
Actual Time 7:38 AM PST 4:10 PM PST
Civil Twilight 7:03 AM PST 4:45 PM PST
Nautical Twilight 6:24 AM PST 5:25 PM PST
Astronomical Twilight 5:46 AM PST 6:02 PM PST
Moon 9:07 PM PST (1/1) 9:34 AM PST (1/1)
Length of Visible Light 9h 42m
Length of Day
8h 31m
Waning Gibbous, 82% of the Moon is Illuminated
Jan 1
Waning Gibbous
Jan 4
Last Quarter
Jan 11
New
Jan 18
First Quarter
Jan 26
Full

Hourly Weather History & Observations

Time (PST) Temp. Windchill Dew Point Humidity Pressure Visibility Wind Dir Wind Speed Gust Speed Precip Events Conditions
12:50 AM 10.4 °F 4.0 °F 10.4 °F 100% 30.38 in 10.0 mi South 3.5 mph - N/A Snow Light Snow
12:58 AM 11.5 °F 3.5 °F 11.5 °F 100% 30.51 in 10.0 mi South 4.6 mph - 0.00 in Snow Light Snow
1:00 AM 12.2 °F 4.3 °F 12.2 °F 100% 30.37 in 10.0 mi SSE 4.6 mph - N/A   Mostly Cloudy
1:10 AM 12.2 °F 2.9 °F 12.2 °F 100% 30.37 in 10.0 mi SSE 5.8 mph - N/A   Scattered Clouds
1:30 AM 15.8 °F - 15.8 °F 100% 30.37 in 10.0 mi South 2.3 mph - N/A   Mostly Cloudy
1:58 AM 16.7 °F - 16.7 °F 100% 30.52 in 10.0 mi SW 2.3 mph - 0.00 in   Overcast
2:30 AM 15.8 °F 8.6 °F 15.8 °F 100% 30.41 in 10.0 mi SSW 4.6 mph - N/A Snow Light Snow
2:47 AM 12.2 °F 6.1 °F 12.2 °F 100% 30.42 in 10.0 mi WSW 3.5 mph - N/A   Overcast
2:53 AM 12.2 °F 6.1 °F 12.2 °F 100% 30.43 in 10.0 mi West 3.5 mph - N/A   Overcast
2:58 AM 12.6 °F 4.8 °F 12.6 °F 100% 30.55 in 10.0 mi West 4.6 mph - 0.00 in   Overcast
3:18 AM 14.0 °F 6.5 °F 14.0 °F 100% 30.42 in 10.0 mi South 4.6 mph - N/A Snow Light Snow
3:28 AM 14.0 °F - 14.0 °F 100% 30.42 in 10.0 mi SSW 2.3 mph - N/A   Overcast
3:58 AM 15.4 °F 5.6 °F 15.4 °F 100% 30.56 in 10.0 mi WSW 6.9 mph - 0.00 in   Overcast
4:58 AM 20.5 °F 10.8 °F 20.5 °F 100% 30.56 in 10.0 mi WSW 8.1 mph - N/A   Overcast
5:58 AM 19.9 °F 13.4 °F 19.9 °F 100% 30.58 in 10.0 mi WSW 4.6 mph - N/A   Overcast
6:13 AM 21.2 °F 13.6 °F 21.2 °F 100% 30.45 in 10.0 mi WSW 5.8 mph - N/A   Overcast
6:43 AM 21.2 °F 14.9 °F 21.2 °F 100% 30.44 in 10.0 mi West 4.6 mph - N/A   Overcast
6:58 AM 20.5 °F 12.8 °F 20.5 °F 100% 30.58 in 10.0 mi West 5.8 mph - N/A   Overcast
7:33 AM 21.2 °F 16.4 °F 21.2 °F 100% 30.45 in 10.0 mi WSW 3.5 mph - N/A Snow Light Snow
7:46 AM 21.2 °F 13.6 °F 21.2 °F 100% 30.46 in 10.0 mi SSW 5.8 mph - N/A   Overcast
7:56 AM 21.2 °F 10.9 °F 21.2 °F 100% 30.47 in 10.0 mi WSW 9.2 mph - N/A   Overcast
7:58 AM 20.8 °F 9.7 °F 20.8 °F 100% 30.61 in 10.0 mi WSW 10.4 mph - 0.00 in   Overcast
7:59 AM 21.2 °F 10.1 °F 21.2 °F 100% 30.47 in 10.0 mi WSW 10.4 mph - N/A Snow Light Snow
8:36 AM 21.2 °F 12.6 °F 21.2 °F 100% 30.48 in 10.0 mi WSW 6.9 mph - N/A   Overcast
8:44 AM 21.2 °F 16.4 °F 21.2 °F 100% 30.48 in 10.0 mi WSW 3.5 mph - N/A Snow Light Snow
8:57 AM 21.2 °F 14.9 °F 21.2 °F 100% 30.49 in 10.0 mi WSW 4.6 mph - N/A   Overcast
8:58 AM 21.2 °F 14.9 °F 21.2 °F 100% 30.62 in 10.0 mi WSW 4.6 mph - 0.00 in   Overcast
9:05 AM 21.2 °F 13.6 °F 21.2 °F 100% 30.49 in 10.0 mi SW 5.8 mph - N/A Snow Light Snow
9:27 AM 21.2 °F 14.9 °F 21.2 °F 100% 30.50 in 10.0 mi SW 4.6 mph - N/A   Overcast
9:29 AM 21.2 °F 14.9 °F 21.2 °F 100% 30.50 in 10.0 mi SW 4.6 mph - N/A Snow Light Snow
9:30 AM 21.2 °F 13.6 °F 21.2 °F 100% 30.50 in 10.0 mi SW 5.8 mph - N/A   Overcast
9:42 AM 21.2 °F 12.6 °F 21.2 °F 100% 30.51 in 10.0 mi WSW 6.9 mph - N/A Snow Light Snow
9:43 AM 21.2 °F 11.7 °F 21.2 °F 100% 30.51 in 10.0 mi WSW 8.1 mph - N/A Snow Light Snow
9:58 AM 21.4 °F 12.8 °F 21.4 °F 100% 30.65 in 10.0 mi WSW 6.9 mph - 0.00 in Snow Light Snow
9:59 AM 21.2 °F 12.6 °F 21.2 °F 100% 30.51 in 10.0 mi WSW 6.9 mph - N/A   Overcast
10:06 AM 21.2 °F 11.7 °F 21.2 °F 100% 30.51 in 10.0 mi SSW 8.1 mph - N/A Snow Light Snow
10:16 AM 21.2 °F 13.6 °F 21.2 °F 100% 30.51 in 10.0 mi SSW 5.8 mph - N/A Snow Light Snow
10:43 AM 21.2 °F 10.9 °F 21.2 °F 100% 30.51 in 10.0 mi WSW 9.2 mph - N/A   Overcast
10:58 AM 21.6 °F 13.0 °F 21.6 °F 100% 30.64 in 10.0 mi West 6.9 mph - 0.00 in   Overcast
11:58 AM 21.7 °F 13.2 °F 21.7 °F 100% 30.64 in 10.0 mi West 6.9 mph - N/A   Overcast
12:04 PM 21.2 °F 12.6 °F 21.2 °F 100% 30.50 in 10.0 mi West 6.9 mph - N/A   Overcast
12:13 PM 21.2 °F 12.6 °F 21.2 °F 100% 30.50 in 10.0 mi West 6.9 mph - N/A   Overcast
12:23 PM 21.2 °F 13.6 °F 21.2 °F 100% 30.51 in 10.0 mi West 5.8 mph - N/A   Overcast
12:58 PM 21.9 °F 17.2 °F 21.9 °F 100% 30.64 in 10.0 mi NW 3.5 mph - 0.00 in   Overcast
1:13 PM 23.0 °F - 23.0 °F 100% 30.51 in 10.0 mi North - - N/A   Overcast
1:22 PM 21.2 °F - 21.2 °F 100% 30.51 in 10.0 mi Calm Calm - N/A   Overcast
1:32 PM 21.2 °F - 21.2 °F 100% 30.51 in 10.0 mi Calm Calm - N/A   Overcast
1:58 PM 21.9 °F - 21.9 °F 100% 30.63 in 10.0 mi Calm Calm - 0.00 in   Overcast
2:04 PM 21.2 °F - 21.2 °F 100% 30.51 in 10.0 mi Calm Calm - N/A   Overcast
2:33 PM 21.2 °F 16.4 °F 21.2 °F 100% 30.50 in 10.0 mi SE 3.5 mph - N/A   Overcast
2:44 PM 21.2 °F 16.4 °F 21.2 °F 100% 30.51 in 10.0 mi ESE 3.5 mph - N/A   Overcast
2:58 PM 21.7 °F 17.0 °F 21.7 °F 100% 30.64 in 10.0 mi ESE 3.5 mph - 0.00 in   Overcast
3:09 PM 21.2 °F 16.4 °F 21.2 °F 100% 30.50 in 10.0 mi SE 3.5 mph - N/A   Overcast
3:29 PM 21.2 °F - 21.2 °F 100% 30.51 in 10.0 mi Calm Calm - N/A   Overcast
3:34 PM 21.2 °F - 21.2 °F 100% 30.51 in 10.0 mi Calm Calm - N/A   Overcast
3:58 PM 21.7 °F - 21.7 °F 100% 30.65 in 10.0 mi SSW 2.3 mph - 0.00 in   Overcast
4:58 PM 21.7 °F - 21.7 °F 100% 30.64 in 10.0 mi SW 2.3 mph - N/A   Overcast
5:32 PM 21.2 °F - 21.2 °F 100% 30.51 in 10.0 mi North 1.2 mph - N/A   Overcast
5:42 PM 21.2 °F - 21.2 °F 100% 30.51 in 10.0 mi West 1.2 mph - N/A   Overcast
5:46 PM 21.2 °F - 21.2 °F 100% 30.51 in 10.0 mi Calm Calm - N/A   Overcast
5:58 PM 21.6 °F - 21.6 °F 100% 30.64 in 10.0 mi Calm Calm - 0.00 in   Overcast
6:53 PM 21.2 °F 14.9 °F 21.2 °F 100% 30.51 in 10.0 mi East 4.6 mph - N/A   Overcast
6:58 PM 21.6 °F 16.8 °F 21.6 °F 100% 30.64 in 10.0 mi East 3.5 mph - 0.00 in   Overcast
7:08 PM 21.2 °F - 21.2 °F 100% 30.52 in 10.0 mi ENE 2.3 mph - N/A   Overcast
7:17 PM 21.2 °F - 21.2 °F 100% 30.52 in 10.0 mi East 2.3 mph - N/A   Overcast
7:28 PM 21.2 °F - 21.2 °F 100% 30.52 in 10.0 mi NE 2.3 mph - N/A   Overcast
7:45 PM 21.2 °F - 21.2 °F 100% 30.52 in 10.0 mi NNE 2.3 mph - N/A   Overcast
7:54 PM 21.2 °F - 21.2 °F 100% 30.52 in 10.0 mi East 2.3 mph - N/A   Overcast
7:58 PM 21.4 °F - 21.4 °F 100% 30.64 in 10.0 mi ENE 2.3 mph - 0.00 in   Overcast
8:03 PM 21.2 °F - 21.2 °F 100% 30.52 in 10.0 mi Variable 2.3 mph - N/A   Overcast
8:41 PM 21.2 °F - 21.2 °F 100% 30.52 in 10.0 mi Calm Calm - N/A   Overcast
8:47 PM 21.2 °F - 21.2 °F 100% 30.52 in 10.0 mi Calm Calm - N/A   Overcast
8:56 PM 21.2 °F - 21.2 °F 100% 30.53 in 10.0 mi North 2.3 mph - N/A   Overcast
8:58 PM 21.2 °F - 21.2 °F 100% 30.65 in 10.0 mi North 2.3 mph - 0.00 in   Overcast
9:13 PM 21.2 °F 16.4 °F 21.2 °F 100% 30.53 in 10.0 mi NNE 3.5 mph - N/A   Overcast
9:17 PM 21.2 °F - 21.2 °F 100% 30.53 in 10.0 mi North 2.3 mph - N/A   Overcast
9:44 PM 21.2 °F 13.6 °F 21.2 °F 100% 30.52 in 10.0 mi East 5.8 mph - N/A   Overcast
9:54 PM 21.2 °F 14.9 °F 21.2 °F 100% 30.52 in 10.0 mi ENE 4.6 mph - N/A   Overcast
9:58 PM 21.6 °F 16.8 °F 21.6 °F 100% 30.64 in 10.0 mi NE 3.5 mph - 0.00 in   Overcast
9:59 PM 21.2 °F 16.4 °F 21.2 °F 100% 30.52 in 10.0 mi NE 3.5 mph - N/A   Overcast
10:21 PM 21.2 °F - 21.2 °F 100% 30.52 in 10.0 mi SE 2.3 mph - N/A Snow Light Snow
10:31 PM 21.2 °F 16.4 °F 21.2 °F 100% 30.52 in 10.0 mi ESE 3.5 mph - N/A   Overcast
10:42 PM 21.2 °F 16.4 °F 21.2 °F 100% 30.52 in 10.0 mi ESE 3.5 mph - N/A Snow Light Snow
10:58 PM 21.6 °F - 21.6 °F 100% 30.65 in 10.0 mi SW 1.2 mph - 0.00 in Snow Light Snow
11:13 PM 21.2 °F - 21.2 °F 100% 30.53 in 10.0 mi WSW 2.3 mph - N/A Snow Light Snow
11:17 PM 21.2 °F - 21.2 °F 100% 30.53 in 10.0 mi West 2.3 mph - N/A   Overcast
11:58 PM 21.4 °F 16.6 °F 21.4 °F 100% 30.65 in 10.0 mi North 3.5 mph - 0.00 in   Overcast